JST1UB EDDN-EDDC

Flight info

Callsign JST1UB
Flight time 0h 51m
Altitude 19000
Route ERETO1G/28 ERETO Z715 ABKIS
Aircraft A320/M-SDE3FGHIRWY/LB1

Departure

Time 2026-04-27 17:03
Airport Nuremberg Airport (EDDN)

Arrival

Time 2026-04-27 17:54
Airport Dresden Airport (EDDC)
Time Latitude Longitude Altitude Speed Heading
2026-04-27 16:28 49.49530 11.07660 1025 ft 0 kts 188°
2026-04-27 16:52 49.49537 11.07662 1028 ft 2 kts 188°
2026-04-27 16:52 49.49548 11.07664 1026 ft 2 kts 188°
2026-04-27 16:53 49.49561 11.07667 1029 ft 2 kts 188°
2026-04-27 16:53 49.49577 11.07670 1029 ft 2 kts 154°
2026-04-27 16:53 49.49587 11.07659 1029 ft 0 kts 103°
2026-04-27 16:53 49.49589 11.07650 1026 ft 1 kts 103°
2026-04-27 16:56 49.49589 11.07659 1026 ft 3 kts 94°
2026-04-27 16:56 49.49588 11.07721 1030 ft 9 kts 92°
2026-04-27 16:56 49.49579 11.07840 1030 ft 13 kts 97°
2026-04-27 16:57 49.49565 11.07991 1032 ft 16 kts 98°
2026-04-27 16:57 49.49547 11.08168 1032 ft 18 kts 99°
2026-04-27 16:57 49.49539 11.08319 1035 ft 10 kts 69°
2026-04-27 16:57 49.49601 11.08365 1036 ft 11 kts 29°
2026-04-27 16:58 49.49611 11.08483 1038 ft 12 kts 97°
2026-04-27 16:58 49.49598 11.08605 1040 ft 12 kts 99°
2026-04-27 16:58 49.49586 11.08731 1042 ft 12 kts 96°
2026-04-27 16:58 49.49573 11.08863 1044 ft 13 kts 99°
2026-04-27 16:59 49.49559 11.09004 1046 ft 14 kts 98°
2026-04-27 16:59 49.49544 11.09154 1048 ft 15 kts 98°
2026-04-27 16:59 49.49531 11.09307 1052 ft 14 kts 88°
2026-04-27 16:59 49.49565 11.09433 1056 ft 12 kts 53°
2026-04-27 17:00 49.49603 11.09509 1059 ft 0 kts 53°
2026-04-27 17:01 49.49605 11.09513 1060 ft 1 kts 53°
2026-04-27 17:01 49.49613 11.09530 1059 ft 3 kts 53°
2026-04-27 17:01 49.49634 11.09560 1060 ft 8 kts 32°
2026-04-27 17:01 49.49700 11.09518 1060 ft 14 kts 291°
2026-04-27 17:02 49.49713 11.09396 1056 ft 1 kts 279°
2026-04-27 17:02 49.49729 11.09236 1055 ft 47 kts 278°
2026-04-27 17:02 49.49818 11.08347 1036 ft 116 kts 278°
2026-04-27 17:02 49.49969 11.06854 1104 ft 158 kts 280°
2026-04-27 17:03 49.50141 11.05128 1552 ft 170 kts 282°
2026-04-27 17:03 49.50338 11.03274 2131 ft 176 kts 281°
2026-04-27 17:03 49.50530 11.01316 2556 ft 196 kts 280°
2026-04-27 17:03 49.50743 10.99119 2968 ft 220 kts 280°
2026-04-27 17:04 49.50976 10.96689 3454 ft 244 kts 280°
2026-04-27 17:04 49.51420 10.94063 4019 ft 262 kts 302°
2026-04-27 17:04 49.52737 10.92153 4890 ft 265 kts 338°
2026-04-27 17:04 49.54539 10.91555 5833 ft 268 kts 358°
2026-04-27 17:05 49.56416 10.91650 6766 ft 272 kts
2026-04-27 17:05 49.58320 10.91960 7655 ft 277 kts
2026-04-27 17:05 49.60254 10.92281 8577 ft 280 kts
2026-04-27 17:05 49.62209 10.92534 9488 ft 284 kts
2026-04-27 17:06 49.64198 10.92708 10340 ft 289 kts
2026-04-27 17:06 49.66281 10.92825 10690 ft 311 kts
2026-04-27 17:06 49.68468 10.93110 11164 ft 326 kts
2026-04-27 17:06 49.70653 10.94201 11905 ft 333 kts 23°
2026-04-27 17:07 49.72635 10.96130 12658 ft 341 kts 37°
2026-04-27 17:07 49.74453 10.98528 13410 ft 345 kts 38°
2026-04-27 17:07 49.76291 11.00975 14134 ft 350 kts 38°
2026-04-27 17:07 49.78152 11.03454 14808 ft 354 kts 38°
2026-04-27 17:08 49.80007 11.05922 15458 ft 358 kts 38°
2026-04-27 17:08 49.81909 11.08453 16108 ft 362 kts 38°
2026-04-27 17:08 49.83664 11.11307 16754 ft 370 kts 49°
2026-04-27 17:08 49.85052 11.14705 17396 ft 378 kts 60°
2026-04-27 17:09 49.86192 11.18401 18053 ft 382 kts 62°
2026-04-27 17:09 49.87346 11.22151 18661 ft 387 kts 61°
2026-04-27 17:09 49.88515 11.25937 19046 ft 390 kts 61°
2026-04-27 17:09 49.89690 11.29733 19145 ft 389 kts 61°
2026-04-27 17:10 49.90854 11.33509 19172 ft 385 kts 61°
2026-04-27 17:10 49.92007 11.37257 19171 ft 384 kts 60°
2026-04-27 17:10 49.93355 11.40812 19171 ft 380 kts 50°
2026-04-27 17:10 49.95059 11.43906 19180 ft 375 kts 41°
2026-04-27 17:11 49.96906 11.46778 19179 ft 376 kts 41°
2026-04-27 17:11 50.00576 11.52495 19178 ft 376 kts 41°
2026-04-27 17:11 50.02420 11.55380 19182 ft 376 kts 41°
2026-04-27 17:12 50.06101 11.61173 19192 ft 376 kts 41°
2026-04-27 17:12 50.07936 11.64076 19211 ft 377 kts 42°
2026-04-27 17:12 50.09755 11.67033 19214 ft 377 kts 43°
2026-04-27 17:13 50.11555 11.70019 19221 ft 377 kts 43°
2026-04-27 17:13 50.13341 11.73015 19223 ft 377 kts 43°
2026-04-27 17:13 50.15127 11.76025 19226 ft 377 kts 43°
2026-04-27 17:13 50.16890 11.78991 19228 ft 377 kts 43°
2026-04-27 17:14 50.18643 11.82046 19228 ft 379 kts 48°
2026-04-27 17:14 50.20110 11.85494 19230 ft 382 kts 55°
2026-04-27 17:14 50.21499 11.89037 19236 ft 382 kts 55°
2026-04-27 17:14 50.22892 11.92584 19233 ft 382 kts 55°
2026-04-27 17:15 50.24283 11.96124 19233 ft 382 kts 55°
2026-04-27 17:15 50.25674 11.99669 19241 ft 382 kts 55°
2026-04-27 17:15 50.27077 12.03197 19245 ft 382 kts 54°
2026-04-27 17:15 50.28544 12.06665 19247 ft 382 kts 53°
2026-04-27 17:16 50.30052 12.10078 19243 ft 381 kts 52°
2026-04-27 17:16 50.31578 12.13477 19241 ft 381 kts 52°
2026-04-27 17:16 50.33086 12.16834 19237 ft 381 kts 52°
2026-04-27 17:16 50.34578 12.20279 19227 ft 383 kts 57°
2026-04-27 17:17 50.35842 12.23946 19227 ft 384 kts 59°
2026-04-27 17:17 50.37089 12.27642 19225 ft 383 kts 59°
2026-04-27 17:17 50.38337 12.31348 19225 ft 383 kts 59°
2026-04-27 17:18 50.40819 12.38752 19229 ft 383 kts 59°
2026-04-27 17:18 50.42058 12.42455 19229 ft 383 kts 59°
2026-04-27 17:18 50.43294 12.46160 19227 ft 383 kts 59°
2026-04-27 17:18 50.44531 12.49873 19205 ft 384 kts 59°
2026-04-27 17:19 50.45772 12.53595 19190 ft 386 kts 60°
2026-04-27 17:19 50.47017 12.57336 19184 ft 387 kts 60°
2026-04-27 17:19 50.48249 12.61042 19186 ft 387 kts 60°
2026-04-27 17:19 50.49496 12.64790 19189 ft 388 kts 60°
2026-04-27 17:20 50.50747 12.68550 19188 ft 388 kts 60°
2026-04-27 17:20 50.51994 12.72315 19190 ft 388 kts 60°
2026-04-27 17:20 50.53239 12.76077 19194 ft 388 kts 60°
2026-04-27 17:20 50.54489 12.79852 19197 ft 388 kts 60°
2026-04-27 17:21 50.55736 12.83625 19202 ft 388 kts 60°
2026-04-27 17:21 50.56980 12.87405 19206 ft 389 kts 60°
2026-04-27 17:21 50.58220 12.91184 19210 ft 389 kts 60°
2026-04-27 17:21 50.59460 12.94969 19210 ft 389 kts 60°
2026-04-27 17:22 50.59647 12.95541 19211 ft 389 kts 60°
2026-04-27 17:30 50.61989 13.02542 19204 ft 389 kts 60°
2026-04-27 17:30 50.63423 13.06113 19208 ft 384 kts 46°
2026-04-27 17:31 50.65277 13.09041 18963 ft 372 kts 39°
2026-04-27 17:31 50.69144 13.14541 18367 ft 357 kts 38°
2026-04-27 17:31 50.71018 13.17154 18035 ft 351 kts 38°
2026-04-27 17:32 50.72801 13.19647 17728 ft 345 kts 38°
2026-04-27 17:32 50.76565 13.24000 17084 ft 325 kts 14°
2026-04-27 17:32 50.78744 13.24453 16776 ft 310 kts 350°
2026-04-27 17:33 50.80750 13.23486 16467 ft 298 kts 326°
2026-04-27 17:33 50.82246 13.21321 16157 ft 290 kts 302°
2026-04-27 17:33 50.82963 13.18401 15863 ft 286 kts 277°
2026-04-27 17:33 50.82784 13.15274 15451 ft 290 kts 252°
2026-04-27 17:34 50.81743 13.12523 15056 ft 295 kts 233°
2026-04-27 17:34 50.80561 13.09935 14659 ft 292 kts 248°
2026-04-27 17:34 50.80130 13.06861 14281 ft 286 kts 274°
2026-04-27 17:34 50.80610 13.03856 13886 ft 283 kts 299°
2026-04-27 17:35 50.81826 13.01418 13454 ft 283 kts 313°
2026-04-27 17:35 50.83227 12.99209 13028 ft 285 kts 315°
2026-04-27 17:35 50.84646 12.97015 12603 ft 285 kts 315°
2026-04-27 17:35 50.86065 12.94812 12198 ft 286 kts 315°
2026-04-27 17:36 50.87479 12.92595 11794 ft 286 kts 315°
2026-04-27 17:36 50.88891 12.90373 11388 ft 286 kts 315°
2026-04-27 17:36 50.90285 12.88173 10997 ft 286 kts 315°
2026-04-27 17:36 50.91697 12.85939 10603 ft 287 kts 315°
2026-04-27 17:37 50.93104 12.83706 10265 ft 285 kts 315°
2026-04-27 17:37 50.94478 12.81523 10208 ft 272 kts 315°
2026-04-27 17:37 50.95792 12.79426 10217 ft 266 kts 315°
2026-04-27 17:37 50.97094 12.77344 10220 ft 265 kts 315°
2026-04-27 17:38 50.98394 12.75266 10219 ft 265 kts 315°
2026-04-27 17:38 50.99534 12.72977 10223 ft 266 kts 296°
2026-04-27 17:38 50.99909 12.70119 10220 ft 269 kts 268°
2026-04-27 17:38 50.99375 12.67280 10219 ft 273 kts 240°
2026-04-27 17:39 50.98044 12.65133 10216 ft 278 kts 212°
2026-04-27 17:39 50.96237 12.64162 10220 ft 282 kts 189°
2026-04-27 17:39 50.94253 12.63860 10221 ft 283 kts 185°
2026-04-27 17:39 50.92285 12.63652 10220 ft 283 kts 185°
2026-04-27 17:40 50.90345 12.63458 10220 ft 283 kts 185°
2026-04-27 17:40 50.88375 12.63265 10216 ft 283 kts 184°
2026-04-27 17:40 50.86427 12.63674 10218 ft 285 kts 159°
2026-04-27 17:40 50.84794 12.65410 10218 ft 285 kts 131°
2026-04-27 17:41 50.83833 12.68106 10217 ft 283 kts 103°
2026-04-27 17:41 50.83483 12.71173 10219 ft 283 kts 96°
2026-04-27 17:41 50.83245 12.74277 10218 ft 284 kts 95°
2026-04-27 17:41 50.83020 12.77378 10221 ft 284 kts 95°
2026-04-27 17:42 50.82791 12.80506 9997 ft 288 kts 95°
2026-04-27 17:42 50.82564 12.83620 9602 ft 289 kts 95°
2026-04-27 17:42 50.82340 12.86784 9203 ft 289 kts 95°
2026-04-27 17:42 50.82122 12.89956 8810 ft 290 kts 95°
2026-04-27 17:43 50.81911 12.93131 8423 ft 290 kts 95°
2026-04-27 17:43 50.81707 12.96310 8039 ft 290 kts 95°
2026-04-27 17:43 50.81509 12.99482 7660 ft 290 kts 95°
2026-04-27 17:43 50.81317 13.02660 7295 ft 290 kts 95°
2026-04-27 17:44 50.81136 13.05781 7202 ft 279 kts 95°
2026-04-27 17:44 50.80963 13.08791 7211 ft 272 kts 95°
2026-04-27 17:44 50.80792 13.11726 7213 ft 272 kts 95°
2026-04-27 17:44 50.80677 13.14704 7216 ft 272 kts 87°
2026-04-27 17:45 50.81096 13.17599 7043 ft 272 kts 68°
2026-04-27 17:45 50.81825 13.20352 6749 ft 270 kts 65°
2026-04-27 17:45 50.82586 13.23060 6446 ft 269 kts 65°
2026-04-27 17:45 50.83349 13.25768 6135 ft 269 kts 65°
2026-04-27 17:46 50.84099 13.28471 5825 ft 267 kts 65°
2026-04-27 17:46 50.84842 13.31162 5507 ft 266 kts 65°
2026-04-27 17:46 50.85571 13.33839 5211 ft 264 kts 66°
2026-04-27 17:46 50.86301 13.36484 5017 ft 258 kts 65°
2026-04-27 17:47 50.87011 13.39040 5000 ft 251 kts 64°
2026-04-27 17:47 50.87475 13.40722 5002 ft 252 kts 65°
2026-04-27 17:47 50.88401 13.44092 5001 ft 252 kts 65°
2026-04-27 17:47 50.89123 13.46623 5002 ft 251 kts 60°
2026-04-27 17:48 50.90280 13.48634 4937 ft 250 kts 31°
2026-04-27 17:48 50.91802 13.49920 4698 ft 246 kts 28°
2026-04-27 17:48 50.93279 13.51271 4453 ft 242 kts 30°
2026-04-27 17:48 50.94704 13.52646 4233 ft 237 kts 31°
2026-04-27 17:49 50.96099 13.54005 4051 ft 230 kts 31°
2026-04-27 17:49 50.97433 13.55298 4004 ft 218 kts 31°
2026-04-27 17:49 50.98673 13.56531 4000 ft 203 kts 37°
2026-04-27 17:49 50.99701 13.57931 3982 ft 187 kts 40°
2026-04-27 17:50 51.00652 13.59265 3835 ft 179 kts 39°
2026-04-27 17:50 51.02499 13.61833 3397 ft 174 kts 39°
2026-04-27 17:50 51.03406 13.63058 3179 ft 168 kts 39°
2026-04-27 17:51 51.04253 13.64209 2947 ft 152 kts 39°
2026-04-27 17:51 51.05023 13.65259 2745 ft 141 kts 39°
2026-04-27 17:51 51.05755 13.66260 2557 ft 137 kts 39°
2026-04-27 17:51 51.06468 13.67236 2375 ft 134 kts 39°
2026-04-27 17:52 51.07176 13.68205 2192 ft 134 kts 39°
2026-04-27 17:52 51.07879 13.69169 2013 ft 133 kts 39°
2026-04-27 17:52 51.08580 13.70130 1833 ft 133 kts 39°
2026-04-27 17:52 51.09045 13.70767 1707 ft 133 kts 39°
2026-04-27 17:53 51.09986 13.72062 1450 ft 134 kts 39°
2026-04-27 17:53 51.10689 13.73046 1266 ft 134 kts 37°
2026-04-27 17:53 51.11416 13.74003 1057 ft 135 kts 38°
2026-04-27 17:53 51.12128 13.74996 838 ft 136 kts 40°
2026-04-27 17:54 51.12835 13.75966 714 ft 125 kts 40°
2026-04-27 17:54 51.13358 13.76695 714 ft 75 kts 40°
2026-04-27 17:54 51.13684 13.77140 714 ft 51 kts 41°
2026-04-27 17:54 51.13895 13.77442 712 ft 22 kts 58°
2026-04-27 17:55 51.13866 13.77578 713 ft 11 kts 135°
2026-04-27 17:55 51.13817 13.77670 713 ft 13 kts 130°
2026-04-27 17:55 51.13801 13.77702 711 ft 0 kts 130°
2026-04-27 17:58 51.13795 13.77711 711 ft 6 kts 132°
2026-04-27 17:59 51.13718 13.77668 712 ft 21 kts 221°
2026-04-27 17:59 51.13589 13.77491 711 ft 26 kts 221°
2026-04-27 17:59 51.13445 13.77288 716 ft 29 kts 221°
2026-04-27 17:59 51.13285 13.77070 714 ft 31 kts 221°
2026-04-27 18:00 51.13113 13.76836 715 ft 34 kts 221°
2026-04-27 18:00 51.12958 13.76622 715 ft 28 kts 221°
2026-04-27 18:00 51.12840 13.76463 715 ft 13 kts 214°
2026-04-27 18:00 51.12760 13.76516 711 ft 15 kts 133°
2026-04-27 18:01 51.12683 13.76655 712 ft 18 kts 131°
2026-04-27 18:01 51.12627 13.76746 712 ft 5 kts 172°
2026-04-27 18:01 51.12593 13.76709 713 ft 7 kts 221°
2026-04-27 18:01 51.12571 13.76679 716 ft 4 kts 221°
2026-04-27 18:02 51.12563 13.76667 714 ft 0 kts 221°